[[{"header":{"parameterUnit":"m.s-1","parameterCategory":1,"la1":30.2991,"la2":30.254,"lo1":-89.0895,"lo2":-89.0444,"dy":0.0017,"dx":0.0017,"nx":28,"ny":28,"refTime":"2023-10-24T09:00:00:Z","depth":0,"parameterNumber":2,"parameterNumberName":"U-component_of_WINDS"},"data":[0,0,0,0,0,0,0,0,0,0,0,0,0,0,0,0,0,0,0,0,0,0,0,0,0,0,0,0,0,0,0,0,0,0,0,0,0,0,0,0,0,0,0,0,0,0,0,0,0,0,0,0,0,0,0,0,0,0,-5.4387,-5.4387,0,-5.4406,-5.4406,-5.4406,-5.4275,-5.4272,-5.4268,-5.4265,-5.4281,-5.4285,-5.4289,0,0,0,0,0,0,0,0,0,0,0,0,0,-5.4238,-5.4241,-5.4387,-5.4387,-5.4387,-5.4406,-5.4406,-5.4406,-5.4276,-5.4272,-5.4267,-5.4263,-5.428,-5.4285,-5.4289,0,0,0,0,0,0,0,0,0,0,0,0,0,-5.4284,-5.4242,-5.4387,-5.4325,-5.4319,-5.4406,-5.4406,-5.4406,-5.4277,-5.4271,-5.4266,-5.4261,-5.4279,-5.4284,-5.429,-5.4436,0,0,-5.4308,-5.431,0,0,0,0,0,0,0,0,-5.4282,-5.429,-5.4334,-5.4329,-5.4323,-5.4333,-5.4359,-5.4416,-5.4278,-5.4293,-5.4264,-5.4258,-5.4303,-5.4306,-5.4322,-5.4437,-5.4437,-5.4308,-5.4312,-5.4314,-5.4316,0,0,0,0,0,0,0,-5.4279,-5.4288,-5.4394,-5.4334,-5.4328,-5.4296,-5.4296,-5.4369,-5.4328,-5.4291,-5.4282,-5.4286,-5.4299,-5.4316,-5.4321,-5.4438,-5.4308,-5.4313,-5.4317,-5.4319,-5.4674,-5.4679,0,0,0,0,0,0,-5.4284,-5.4286,-5.4394,-5.4395,-5.4289,-5.4303,-5.4303,-5.4335,-5.4327,-5.4321,-5.4291,-5.428,-5.4309,-5.4315,-5.4321,-5.449,-5.4314,-5.432,-5.4323,-5.4668,-5.4675,-5.4682,0,0,0,0,0,0,-5.4281,-5.4295,-5.4393,-5.4338,-5.4348,-5.4311,-5.4348,-5.4338,-5.4356,-5.4327,-5.4319,-5.4316,-5.4305,-5.4313,-5.4409,-5.4489,-5.4322,-5.4328,-5.4661,-5.467,-5.4678,-5.4831,0,0,0,0,0,0,-5.4278,-5.4295,-5.4349,-5.434,-5.4352,-5.448,-5.4353,-5.4343,-5.4366,-5.4352,-5.4349,-5.4343,-5.4301,-5.4401,-5.4414,-5.4494,-5.4332,-5.4653,-5.4665,-5.4676,-5.4818,-5.4844,-5.4866,0,0,0,0,0,-5.4273,-5.4391,-5.4353,-5.4367,-5.442,-5.4485,-5.4491,-5.4442,-5.4373,-5.4428,-5.441,-5.4343,-5.448,-5.4412,-5.4426,-5.4509,-5.4648,-5.4662,-5.4675,-5.4808,-5.4839,-5.4865,0,0,0,0,0,0,-5.4409,-5.4388,-5.4346,-5.4465,-5.4478,-5.4463,-5.453,-5.4477,-5.4508,-5.4494,-5.4431,-5.4432,-5.4537,-5.4533,-5.4458,-5.465,-5.4552,-5.4568,-5.4648,-5.4677,-5.47,-5.4697,-5.4337,0,0,0,0,0,-5.4453,-5.4509,-5.4488,-5.4595,-5.4604,-5.4567,-5.4593,-5.4555,-5.4565,-5.457,-5.4558,-5.4571,-5.4616,-5.4647,-5.4687,-5.4819,-5.4815,-5.4883,-5.4907,-5.4927,-5.494,-5.5009,-5.5038,-5.4725,-5.4725,-5.4725,0,0,-5.4544,-5.454,-5.4578,-5.4622,-5.4627,-5.4686,-5.4572,-5.4638,-5.468,-5.4579,-5.4668,-5.4662,-5.4671,-5.4785,-5.4835,-5.4785,-5.5027,-5.4944,-5.4959,-5.4962,-5.5026,-5.5055,-5.5082,-5.4735,-5.4733,-5.4731,0,0,-5.4738,-5.4742,-5.4831,-5.484,-5.485,-5.4826,-5.4848,-5.4842,-5.4833,-5.4923,-5.4848,-5.4898,-5.4978,-5.4988,-5.5004,-5.5207,-5.5146,-5.5223,-5.5344,-5.5412,-5.5437,-5.5458,-5.5528,-5.5555,-5.5238,-5.5238,-5.5238,0,-5.4849,-5.4934,-5.4883,-5.4955,-5.4976,-5.4891,-5.498,-5.4991,-5.5014,-5.5031,-5.4976,-5.5075,-5.5076,-5.5191,-5.5241,-5.5257,-5.5279,-5.522,-5.5438,-5.5459,-5.5478,-5.5544,-5.5571,-5.5247,-5.5246,-5.5245,-5.5244,0,-5.5069,-5.513,-5.5201,-5.5227,-5.5257,-5.5337,-5.5298,-5.5335,-5.5296,-5.5277,-5.5369,-5.5368,-5.5407,-5.5432,-5.5394,-5.5543,-5.5511,-5.5449,-5.5347,-5.5517,-5.5578,-5.5604,-5.526,-5.5257,-5.5254,-5.5252,0,0,-5.5344,-5.5344,-5.537,-5.5381,-5.5389,-5.5434,-5.5513,-5.5552,-5.5583,-5.5604,-5.5666,-5.5739,-5.5681,-5.5699,-5.5662,-5.5722,-5.5881,-5.5651,-5.565,-5.5691,-5.6043,-5.6088,-5.6118,-5.5843,-5.5848,-5.5852,-5.6042,0,-5.5531,-5.5663,-5.5621,-5.5754,-5.5809,-5.5731,-5.5799,-5.5811,-5.5797,-5.5842,-5.5826,-5.5877,-5.5799,-5.5809,-5.5866,-5.585,-5.595,-5.5836,-5.5899,-5.5901,-5.5894,-5.615,-5.6197,-5.6375,-5.6065,-5.6069,-5.6072,0,-5.5766,-5.5797,-5.5936,-5.5936,-5.5957,-5.6019,-5.6052,-5.6097,-5.611,-5.6095,-5.6118,-5.6069,-5.6145,-5.6049,-5.6152,-5.6076,-5.61,-5.6097,-5.6102,-5.6102,-5.5994,-5.6154,-5.6432,-5.6457,-5.611,-5.6107,-5.6104,0,-5.5949,-5.6026,-5.6119,-5.6131,-5.6134,-5.6179,-5.6182,-5.619,-5.6217,-5.6247,-5.6264,-5.6303,-5.6323,-5.6354,-5.6317,-5.625,-5.6426,-5.6326,-5.6414,-5.6415,-5.645,-5.6447,-5.6732,-5.6473,-5.6473,-5.6472,-5.6472,0,-5.6159,-5.6247,-5.6201,-5.6258,-5.6354,-5.6307,-5.6403,-5.6398,-5.6406,-5.646,-5.6397,-5.6449,-5.6399,-5.6447,-5.6419,-5.6508,-5.6519,-5.6508,-5.6499,-5.6512,-5.6512,-5.6523,-5.6508,-5.6479,-5.6478,-5.6476,-5.6475,0,-5.6377,-5.635,-5.6446,-5.6443,-5.6444,-5.6515,-5.6511,-5.6564,-5.6548,-5.6617,-5.6631,-5.6605,-5.6658,-5.6626,-5.668,-5.6661,-5.6777,-5.6753,-5.6772,-5.6764,-5.6853,-5.6843,-5.715,-5.7187,-5.6909,-5.6911,-5.6914,0,-5.6511,-5.6576,-5.6581,-5.6613,-5.6621,-5.6674,-5.6702,-5.666,-5.6692,-5.6714,-5.6763,-5.6812,-5.6847,-5.6937,-5.6922,-5.6964,-5.6937,-5.7043,-5.6943,-5.6954,-5.6935,-5.693,-5.6935,-5.7061,-5.7064,-5.7067,-5.7069,0,-5.675,-5.6735,-5.6778,-5.6817,-5.6853,-5.6882,-5.6905,-5.6935,-5.6894,-5.6933,-5.6987,-5.7015,-5.7072,-5.712,-5.7157,-5.7159,-5.7107,-5.7102,-5.7123,-5.7134,-5.7141,-5.7136,-5.6822,-5.7093,-5.709,-5.7089,-5.7087,-5.7086,-5.6927,-5.6982,-5.6994,-5.7045,-5.7059,-5.7083,-5.7132,-5.7124,-5.7169,-5.7211,-5.7185,-5.7249,-5.7263,-5.7306,-5.7316,-5.7366,-5.7323,-5.7356,-5.7363,-5.7371,-5.7381,-5.7138,-5.7373,-5.7372,-5.7371,-5.7371,-5.737,0,-5.7161,-5.7166,-5.7213,-5.7249,-5.7289,-5.724,-5.7265,-5.7301,-5.7358,-5.7376,-5.7414,-5.7477,-5.7525,-5.7517,-5.756,-5.7601,-5.7578,-5.7614,-5.7608,-5.7609,-5.7418,-5.7393,-5.7631,-5.7631,-5.7631,-5.7631,-5.7631,-5.7631,-5.7286,-5.7376,-5.7363,-5.746,-5.7464,-5.7527,-5.7545,-5.7567,-5.7581,-5.7655,-5.7695,-5.769,-5.7697,-5.7741,-5.7783,-5.778,-5.7797,-5.784,-5.7828,-5.7649,-5.7622,-5.7598,-5.7574,-5.7846,-5.7846,-5.8013,-5.8015,-5.8016]},{"header":{"parameterUnit":"m.s-1","parameterCategory":1,"la1":30.2991,"la2":30.254,"lo1":-89.0895,"lo2":-89.0444,"dy":0.0017,"dx":0.0017,"nx":28,"ny":28,"refTime":"2023-10-24T09:00:00:Z","depth":0,"parameterNumber":3,"parameterNumberName":"V-component_of_WINDS"},"data":[0,0,0,0,0,0,0,0,0,0,0,0,0,0,0,0,0,0,0,0,0,0,0,0,0,0,0,0,0,0,0,0,0,0,0,0,0,0,0,0,0,0,0,0,0,0,0,0,0,0,0,0,0,0,0,0,0,0,2.1956,2.1956,0,2.1942,2.1942,2.1941,2.1857,2.1855,2.1853,2.1851,2.1835,2.1837,2.1838,0,0,0,0,0,0,0,0,0,0,0,0,0,2.1911,2.1913,2.1956,2.1956,2.1956,2.1942,2.1942,2.1941,2.1858,2.1855,2.1853,2.185,2.1835,2.1837,2.1838,0,0,0,0,0,0,0,0,0,0,0,0,0,2.1917,2.1913,2.1956,2.1912,2.1908,2.1942,2.1942,2.1941,2.1858,2.1855,2.1852,2.1849,2.1834,2.1836,2.1839,2.1913,0,0,2.1845,2.1846,0,0,0,0,0,0,0,0,2.1917,2.1919,2.1919,2.1915,2.1911,2.1898,2.192,2.1932,2.1859,2.1877,2.1851,2.1848,2.1859,2.1859,2.1863,2.1912,2.1911,2.1846,2.1847,2.1848,2.1848,0,0,0,0,0,0,0,2.1917,2.1919,2.195,2.1919,2.1914,2.1894,2.1891,2.1922,2.1885,2.1875,2.1869,2.1869,2.1856,2.1861,2.1862,2.1911,2.1845,2.1847,2.1849,2.185,2.2024,2.2027,0,0,0,0,0,0,2.1923,2.1919,2.1951,2.195,2.1907,2.1897,2.1894,2.1905,2.1884,2.1878,2.1871,2.1865,2.1858,2.1859,2.1861,2.1947,2.1848,2.185,2.1851,2.2021,2.2025,2.2028,0,0,0,0,0,0,2.1922,2.1926,2.1951,2.1933,2.1935,2.1901,2.1914,2.1907,2.1911,2.1882,2.1874,2.1883,2.1856,2.1858,2.1901,2.1946,2.1851,2.1853,2.2017,2.2022,2.2027,2.2121,0,0,0,0,0,0,2.1921,2.1926,2.1953,2.1934,2.1936,2.1992,2.1917,2.1909,2.1915,2.1907,2.1891,2.1885,2.1854,2.1899,2.1904,2.1947,2.1855,2.2013,2.2019,2.2025,2.2114,2.2129,2.2141,0,0,0,0,0,2.192,2.198,2.1955,2.1959,2.1969,2.1994,2.1995,2.1959,2.1919,2.1947,2.1929,2.1885,2.1941,2.1904,2.1909,2.1953,2.201,2.2017,2.2025,2.2108,2.2126,2.2141,0,0,0,0,0,0,2.2003,2.1976,2.1949,2.2004,2.2003,2.198,2.2013,2.1979,2.1987,2.1979,2.1933,2.193,2.1981,2.1972,2.1931,2.2026,2.1968,2.1977,2.203,2.2047,2.206,2.2061,2.1856,0,0,0,0,0,2.2028,2.2051,2.2026,2.2078,2.2079,2.2047,2.2056,2.2029,2.2025,2.2023,2.2008,2.2005,2.2022,2.2034,2.2048,2.2113,2.2109,2.2147,2.2161,2.2172,2.218,2.2215,2.2232,2.2053,2.2053,2.2053,0,0,2.208,2.2068,2.2085,2.2095,2.209,2.2115,2.2046,2.2075,2.2093,2.2027,2.2068,2.2057,2.2052,2.2107,2.2131,2.2101,2.2229,2.2182,2.2191,2.2192,2.2225,2.2242,2.2257,2.2058,2.2057,2.2056,0,0,2.2186,2.218,2.2223,2.2221,2.2215,2.2195,2.2206,2.219,2.218,2.2221,2.2173,2.2194,2.2224,2.2223,2.2226,2.2338,2.2299,2.2344,2.2415,2.2451,2.2465,2.2477,2.2517,2.2532,2.2352,2.2352,2.2353,0,2.225,2.2286,2.2249,2.2282,2.2288,2.2233,2.2277,2.2276,2.2276,2.2282,2.2249,2.2287,2.228,2.2335,2.2363,2.2367,2.2379,2.2344,2.2466,2.2478,2.2489,2.2527,2.2542,2.2358,2.2357,2.2357,2.2356,0,2.2366,2.2392,2.2428,2.2431,2.2442,2.248,2.2449,2.2465,2.2439,2.2422,2.2465,2.2455,2.2467,2.2478,2.2451,2.2531,2.2513,2.2474,2.2414,2.2512,2.2547,2.2561,2.2366,2.2364,2.2362,2.2361,0,0,2.252,2.2506,2.2519,2.2521,2.2514,2.2533,2.2571,2.2584,2.2599,2.2602,2.2632,2.2661,2.2626,2.263,2.2604,2.2635,2.2726,2.2592,2.2592,2.2617,2.2814,2.2843,2.286,2.2701,2.2704,2.2706,2.2815,0,2.2622,2.2685,2.2655,2.2721,2.2746,2.2696,2.2728,2.2728,2.2715,2.2734,2.2719,2.2741,2.2693,2.2695,2.2724,2.2709,2.2765,2.2701,2.2729,2.273,2.273,2.2878,2.2907,2.301,2.2828,2.283,2.2832,0,2.2748,2.2759,2.2829,2.282,2.2829,2.2859,2.287,2.289,2.289,2.2878,2.2885,2.2852,2.2889,2.2833,2.2884,2.2841,2.2851,2.2846,2.2849,2.2849,2.2786,2.2881,2.3042,2.3057,2.2853,2.2851,2.285,0,2.2854,2.2886,2.2932,2.2936,2.2926,2.2949,2.2946,2.2943,2.2954,2.2965,2.2972,2.2986,2.2994,2.3006,2.2979,2.294,2.3034,2.2975,2.3025,2.3026,2.3045,2.3044,2.3209,2.3054,2.3054,2.3054,2.3053,0,2.297,2.3014,2.298,2.3008,2.3058,2.3024,2.3074,2.3066,2.3064,2.3091,2.3049,2.3074,2.3037,2.306,2.3039,2.3085,2.3088,2.308,2.3074,2.3083,2.3084,2.3088,2.308,2.3058,2.3057,2.3056,2.3055,0,2.3095,2.3073,2.3121,2.311,2.3109,2.3146,2.3137,2.3163,2.3149,2.3183,2.3189,2.3166,2.3191,2.3166,2.3188,2.3174,2.3237,2.322,2.3237,2.3232,2.3284,2.3279,2.3456,2.3477,2.331,2.3312,2.3313,0,2.3169,2.3203,2.3197,2.3213,2.3214,2.3239,2.3251,2.3221,2.3235,2.324,2.3266,2.3288,2.3303,2.3345,2.3331,2.3348,2.3332,2.3393,2.3334,2.3343,2.3332,2.333,2.3334,2.3404,2.3406,2.3407,2.3409,0,2.3304,2.3294,2.3313,2.333,2.3347,2.3358,2.3366,2.3382,2.3351,2.3369,2.3395,2.3408,2.3433,2.3455,2.3469,2.3466,2.3433,2.3428,2.3441,2.345,2.3458,2.3454,2.3269,2.3423,2.3422,2.3421,2.342,2.3419,2.3406,2.3434,2.3436,2.346,2.3464,2.3474,2.3499,2.349,2.3511,2.353,2.3511,2.3543,2.3545,2.3561,2.3563,2.3588,2.3562,2.358,2.3585,2.359,2.3597,2.3456,2.3591,2.359,2.359,2.3589,2.3589,0,2.3538,2.3538,2.3561,2.3576,2.3596,2.3565,2.3574,2.3593,2.3622,2.3627,2.3645,2.3676,2.3699,2.3688,2.3708,2.373,2.3715,2.3736,2.3733,2.3734,2.3619,2.3606,2.3748,2.3748,2.3748,2.3748,2.3748,2.3748,2.361,2.3657,2.3647,2.3697,2.3697,2.3729,2.3737,2.3747,2.3751,2.3788,2.3808,2.3802,2.3801,2.3821,2.3841,2.3838,2.3847,2.3873,2.3864,2.3757,2.3741,2.3726,2.3714,2.3876,2.3876,2.3976,2.3977,2.3978]}]]